Theta_e
325 322 324 326 326 327 325 326 326 327 325 324 322 321 320 318 317 315 316 330 334 331 328 326 324 323 322 320 320 319 318 318 319 318 318 318 318 317 318 318 318 319 319
327 326 324 323 325 325 324 326 325 325 324 323 319 319 318 316 314 313 313 323 331 331 327 325 323 322 321 319 319 317 315 315 315 315 315 315 315 315 316 316 317 317 317
328 328 328 327 326 324 324 324 325 324 322 323 318 316 316 313 312 312 318 322 324 326 327 324 322 321 320 319 318 317 313 312 312 311 312 312 312 313 314 315 315 315 316
329 327 328 329 330 329 324 322 322 322 320 319 315 313 311 311 310 311 312 321 317 317 323 325 322 319 319 318 316 315 312 310 310 309 309 309 310 311 312 313 314 315 316
329 329 329 329 330 328 326 323 321 321 318 315 315 312 309 309 310 312 311 311 317 314 311 320 320 319 317 315 316 314 312 309 308 307 307 308 309 310 311 312 313 314 315
329 329 329 329 328 327 326 325 321 321 318 316 315 312 307 307 308 308 307 310 309 310 308 308 307 307 314 314 313 312 311 309 307 307 307 308 309 310 311 312 314 315 316
330 329 329 328 328 326 327 326 323 320 317 316 311 306 306 306 305 305 307 306 308 308 306 304 302 300 303 311 310 310 309 307 305 306 306 307 308 310 312 313 314 314 315
332 330 329 329 327 326 325 326 325 323 318 317 310 304 300 303 303 305 304 306 305 306 305 304 302 299 299 299 301 306 305 304 306 307 307 307 308 309 310 311 313 314 314
334 332 329 329 327 327 325 326 325 324 320 314 311 308 304 303 300 303 302 303 303 303 303 302 301 299 298 297 301 302 303 304 304 304 305 306 307 308 310 310 312 313 313
334 333 332 330 328 327 326 324 326 325 321 315 312 313 309 305 300 295 300 301 302 302 300 300 299 297 296 296 299 301 303 300 301 302 303 305 306 308 309 310 311 311 312
331 331 332 327 331 330 329 328 325 325 325 319 314 309 311 305 303 299 293 296 299 300 300 299 298 296 295 295 295 300 301 298 299 300 302 304 306 307 308 310 310 310 309
330 330 330 330 330 328 328 328 327 324 322 321 315 312 309 307 305 301 299 295 296 296 298 297 295 294 294 294 298 300 299 296 297 299 302 304 305 306 307 306 307 307 307
324 326 327 328 327 328 327 327 326 324 323 320 319 313 311 311 307 306 304 298 295 292 293 293 292 292 294 293 295 296 295 295 297 298 301 303 303 303 303 304 304 304 305
321 324 324 326 326 326 326 325 323 322 321 320 319 314 311 306 304 303 302 295 292 288 290 289 291 292 292 293 293 295 292 293 295 297 300 302 300 300 300 301 301 301 302
319 317 318 319 322 322 322 321 320 318 317 316 315 309 299 297 297 297 297 298 297 290 288 289 288 290 290 291 292 291 292 293 295 298 298 298 298 298 298 298 299 299 299
310 310 311 312 313 314 314 315 313 311 307 303 301 298 297 296 295 295 295 295 296 293 289 288 287 288 290 291 291 291 291 294 295 295 296 296 296 296 297 297 297 297 298
306 306 308 310 309 308 308 304 302 300 297 296 295 294 293 293 293 293 293 293 292 291 289 286 287 288 288 288 290 289 290 290 289 293 294 295 295 295 295 296 296 297 297
298 297 300 299 298 297 298 298 296 296 294 292 292 292 291 292 291 291 291 290 288 288 288 285 286 285 286 287 288 287 288 289 287 291 293 294 294 294 294 295 295 295 296
291 291 291 291 291 291 292 292 292 291 291 291 291 290 290 290 288 288 288 287 287 287 286 286 285 286 286 287 285 285 285 286 288 291 291 292 293 294 294 295 295 295 295
290 290 291 291 292 292 292 292 291 291 290 290 290 290 290 289 288 287 287 286 286 285 285 285 284 285 285 285 284 283 282 283 282 286 288 290 292 292 293 293 293 293 293
291 292 292 292 292 291 291 290 290 289 288 287 288 288 289 290 291 289 287 286 286 285 285 285 284 284 283 283 282 282 281 281 282 283 282 283 283 285 286 289 290 291 292
291 291 291 292 292 293 294 292 288 286 286 286 285 285 286 287 289 290 289 289 288 285 285 282 281 281 281 281 281 280 279 277 276 281 280 282 283 282 284 284 290 292 292
287 287 287 288 289 290 293 292 289 285 285 284 285 285 285 286 285 285 286 286 287 287 287 284 281 281 279 280 279 276 278 275 277 282 280 280 281 281 284 286 290 291 292
286 285 285 286 287 289 292 291 289 285 285 284 284 285 284 284 284 285 285 283 284 284 285 285 282 281 281 282 282 279 278 279 280 281 281 277 279 280 283 282 289 289 290
285 285 286 286 285 285 289 288 286 282 282 281 283 283 284 283 286 288 284 283 282 281 285 286 285 287 288 288 287 279 275 274 276 278 280 278 278 278 281 281 282 288 289
286 287 285 284 287 282 288 288 286 283 280 281 281 282 286 284 286 286 281 279 277 277 279 281 281 282 283 282 287 281 277 270 279 277 278 276 276 276 276 278 279 281 281
Wind_Speed
5 5 6 6 5 6 5 6 5 7 6 4 3 4 3 4 5 4 3 10 11 11 10 10 9 9 8 8 8 8 8 8 9 8 9 9 8 8 9 9 9 9 10
5 5 5 5 5 6 5 6 5 4 5 4 5 4 4 4 4 4 4 5 11 10 10 10 9 9 8 8 8 7 7 7 7 7 7 7 7 7 7 7 7 8 8
6 5 4 4 4 4 5 4 4 4 4 3 4 5 4 6 4 5 5 5 6 10 10 10 10 10 9 8 8 8 6 5 5 4 4 5 5 5 5 6 6 6 7
7 5 4 4 5 4 4 3 3 3 4 4 3 3 3 3 6 6 4 5 5 5 6 9 11 10 10 9 8 7 6 5 4 3 2 2 3 3 4 5 6 7 8
7 6 5 5 6 5 4 4 4 3 3 3 4 4 4 3 4 3 6 6 7 6 5 8 10 10 9 10 9 9 8 5 4 2 1 1 2 3 4 5 6 7 8
7 6 5 6 6 5 5 4 4 4 4 4 4 4 4 4 4 4 5 4 5 7 6 6 5 6 8 11 10 9 8 6 3 3 2 1 3 4 5 6 8 9 10
8 7 6 5 6 6 8 7 5 6 4 4 3 1 1 4 5 4 4 4 6 6 7 7 5 4 4 12 12 10 9 7 5 4 3 3 2 3 5 8 10 11 12
6 8 7 7 6 4 6 10 9 4 4 5 4 3 2 3 4 6 5 5 7 5 6 7 7 7 6 5 6 11 9 7 6 5 3 2 3 4 6 8 10 12 13
6 6 7 6 6 5 6 7 10 11 8 4 7 6 3 6 3 3 7 5 6 4 5 6 7 7 8 5 9 9 10 8 6 5 4 3 4 6 9 9 11 13 15
9 8 6 6 6 5 6 6 6 8 4 8 2 8 1 3 4 1 2 4 5 6 7 5 6 5 6 5 8 9 9 5 3 3 3 4 7 8 10 12 12 13 14
9 8 8 6 5 5 5 6 6 8 9 7 8 4 8 3 3 2 3 3 3 4 5 5 5 5 5 6 5 8 9 4 2 4 5 7 9 11 11 14 14 14 16
5 7 6 6 5 5 4 4 5 6 5 9 7 7 6 5 6 4 2 1 3 2 3 3 3 3 4 4 7 13 10 5 4 6 8 10 11 14 14 13 15 16 17
2 5 7 7 4 6 6 5 5 5 5 6 10 6 4 4 3 3 3 1 2 1 3 6 6 5 5 5 5 6 6 2 8 9 10 11 13 14 17 15 16 17 18
2 2 4 4 5 5 5 5 4 4 5 7 8 5 4 3 2 1 3 5 1 2 3 3 2 4 4 3 1 9 3 2 5 10 14 15 13 16 16 17 17 18 19
4 6 6 4 3 2 3 4 3 3 4 3 2 3 4 4 4 3 3 3 4 5 4 4 2 2 3 5 2 1 2 6 10 15 16 15 16 14 16 16 17 19 19
7 7 7 6 6 5 5 4 4 4 5 4 4 6 5 4 4 4 3 2 2 3 3 0 2 4 2 2 4 4 6 11 13 14 14 15 15 15 16 17 17 19 19
9 8 6 6 6 5 5 4 5 4 6 6 6 7 7 6 4 4 3 3 3 3 2 3 1 2 4 4 2 4 6 5 5 14 13 15 15 16 17 17 18 19 19
9 8 8 9 8 7 5 5 6 6 6 6 6 7 8 6 6 4 3 4 2 2 4 2 2 3 4 3 4 5 5 6 5 9 14 14 15 16 16 16 16 17 18
8 8 8 8 8 7 8 8 8 9 8 7 6 7 7 7 7 5 4 3 3 2 3 3 3 2 4 3 4 5 5 5 4 8 12 14 15 17 17 16 16 17 18
7 8 8 9 9 9 9 9 10 10 10 9 9 8 7 7 7 6 5 2 2 3 2 2 2 2 2 3 3 3 3 1 3 3 8 12 14 15 15 17 20 18 18
7 8 10 10 9 7 6 8 10 10 10 10 9 8 6 9 11 7 5 2 2 2 2 1 1 0 1 1 2 1 1 2 2 3 3 2 3 6 7 12 14 17 18
9 11 11 10 10 7 19 18 13 10 10 9 9 8 6 9 9 12 5 3 3 2 1 1 1 0 3 1 2 2 1 3 3 2 4 9 3 5 6 4 14 19 19
10 10 11 10 10 10 18 19 18 8 8 7 6 5 4 3 4 1 4 1 3 2 1 2 1 1 2 1 2 1 1 2 4 5 2 11 2 6 7 7 17 20 21
8 8 10 8 8 9 16 16 15 6 6 5 5 4 3 3 3 2 3 2 2 3 3 0 2 2 2 2 1 3 3 4 4 4 1 6 2 8 7 5 18 21 18
9 8 8 7 8 6 12 11 8 5 4 4 3 1 2 1 3 5 5 3 3 3 5 4 4 7 8 8 7 1 2 2 4 3 2 3 3 4 8 9 6 12 15
6 5 3 6 10 5 9 7 4 3 2 2 2 3 6 5 6 7 4 4 3 2 3 4 3 5 6 5 7 2 3 2 4 4 2 4 4 3 7 3 3 8 6
Wind_Direction
159 182 167 170 186 170 196 188 192 206 202 215 226 191 161 124 107 121 138 149 148 155 152 146 148 141 136 125 115 104 96 90 88 81 72 69 58 54 47 41 36 37 34
169 180 183 178 177 169 202 181 202 180 174 198 203 180 151 119 135 133 151 157 153 157 163 161 161 156 152 145 135 123 111 99 89 85 76 67 57 42 38 33 25 23 22
184 186 177 172 173 192 197 194 202 177 169 199 193 180 163 168 173 176 142 147 148 160 175 179 173 173 167 161 151 149 139 119 102 91 80 65 47 39 27 15 4 2 1
187 188 186 179 185 193 189 196 192 192 180 174 184 195 172 167 179 183 168 158 158 159 177 187 181 183 178 173 171 162 150 136 136 114 111 51 27 16 9 355 346 342 336
190 179 191 199 179 189 198 193 206 170 175 181 181 195 175 179 199 192 189 168 175 162 166 178 174 173 183 186 179 177 161 151 147 145 180 286 326 322 341 328 328 325 321
192 185 196 196 196 174 194 180 182 198 169 184 185 180 182 189 199 210 197 186 169 158 160 154 151 156 172 191 185 184 180 170 178 187 211 263 300 304 311 312 312 312 314
187 188 199 206 201 191 185 192 177 188 207 172 123 29 283 207 212 210 208 199 183 178 149 156 160 161 170 189 188 188 189 188 198 207 223 243 280 306 317 319 317 314 310
212 192 191 206 217 220 183 192 200 176 180 179 155 115 238 305 251 216 210 207 194 172 175 168 176 167 170 173 176 188 187 199 194 195 201 239 282 299 305 309 309 307 306
273 243 214 198 211 200 208 200 204 208 197 202 174 155 190 220 161 201 210 203 190 176 178 179 180 173 171 164 179 176 181 179 197 204 222 255 292 300 299 304 306 307 307
237 256 268 216 227 224 207 221 205 213 180 196 262 229 204 147 180 215 259 205 192 191 184 184 170 170 144 139 159 157 159 174 212 238 264 289 295 299 302 302 301 302 307
208 211 212 250 238 225 237 202 205 214 208 184 196 196 231 242 248 164 195 231 231 184 182 173 161 145 143 128 123 141 149 164 240 274 291 298 303 303 305 305 306 308 306
201 192 198 191 236 270 254 245 223 215 230 214 187 201 203 192 220 202 218 188 194 355 49 48 88 110 119 118 134 151 146 146 259 281 293 298 303 306 304 305 303 303 302
252 187 187 183 187 214 232 227 224 221 217 219 210 205 230 235 191 184 169 155 147 21 87 73 7 21 61 44 84 93 100 149 251 272 288 295 307 310 304 301 302 301 300
319 225 184 178 185 210 231 239 224 216 217 224 224 205 201 175 186 240 179 137 113 50 335 356 0 94 83 63 320 213 270 226 282 296 294 287 292 295 295 298 301 299 297
39 64 55 44 48 329 311 274 240 230 213 216 228 116 113 83 77 75 85 118 153 183 197 186 103 292 176 118 152 283 266 269 271 278 279 285 288 289 292 294 295 296 296
35 36 37 42 27 22 8 2 10 12 70 51 76 95 97 99 89 81 85 97 93 137 148 359 160 159 285 152 208 222 252 263 267 271 284 290 290 295 294 293 296 293 292
36 23 35 35 44 27 33 54 67 75 96 95 92 98 97 107 107 104 102 102 113 114 152 155 147 99 169 221 224 248 251 249 270 280 287 295 296 294 294 292 293 294 294
47 40 42 51 46 45 43 55 66 65 73 81 88 99 110 108 88 84 89 84 93 102 107 105 48 182 202 211 224 233 253 257 247 281 292 291 295 298 297 296 295 294 293
52 55 60 63 62 59 71 72 77 77 77 79 90 103 106 105 98 93 83 94 85 80 74 127 161 194 197 192 223 245 235 245 269 285 307 303 309 304 299 297 294 293 291
57 66 65 67 64 66 65 79 82 80 77 68 64 62 67 85 96 96 96 113 136 111 105 144 176 188 184 202 208 226 293 281 301 327 325 312 305 305 310 307 304 303 299
58 67 79 77 73 73 76 68 81 83 83 81 72 72 75 94 102 100 96 191 209 141 129 114 104 125 17 305 252 291 7 337 302 264 301 305 312 298 290 298 296 294 293
58 68 57 63 71 76 88 90 83 80 72 69 71 61 53 50 46 57 36 52 104 137 174 105 82 225 271 309 23 60 17 22 323 317 3 300 246 275 276 263 284 296 300
85 73 67 65 68 77 85 85 83 74 83 86 91 90 83 65 65 35 248 359 12 345 211 191 225 291 304 337 133 18 268 212 247 283 283 288 283 281 288 288 298 298 300
81 80 83 74 75 76 84 87 88 81 81 77 81 89 129 145 128 267 288 283 242 298 269 30 110 281 312 319 104 183 213 279 286 281 305 279 340 292 295 282 294 300 302
90 84 89 90 80 72 82 89 95 93 109 127 133 130 20 39 33 11 27 356 326 345 346 337 313 293 287 289 281 80 331 37 308 309 280 245 301 304 304 292 278 289 311
90 100 92 102 101 87 76 60 132 168 110 118 124 100 53 36 12 360 26 10 360 316 342 316 320 319 310 301 300 191 165 179 302 313 280 355 326 342 318 297 342 315 295